Weather History for KBIL - April, 2012

Change the Weather History Date:

Tuesday, April 17, 2012

  Actual Average Record
Temperature  
Mean Temperature 47 °F 46 °F  
Max Temperature 56 °F 58 °F 84 °F (1994)
Min Temperature 38 °F 35 °F 16 °F (2013)
Degree Days  
Heating Degree Days 18 19  
Month to date heating degree days 321 354  
Since 1 July heating degree days 5379 6164  
Cooling Degree Days 0 0  
Month to date cooling degree days 0 0  
Year to date cooling degree days 0 0  
Moisture  
Dew Point 33 °F    
Average Humidity 54    
Maximum Humidity 67    
Minimum Humidity 41    
Precipitation  
Precipitation T in 0.05 in 1.33 in (1941)
Month to date precipitation 0.27 0.88  
Year to date precipitation 1.82 2.90  
Snow  
Snow 0.00 in 0.30 in 16.00 in (1941)
Month to date snowfall 0.4 5.4  
Since 1 July snowfall 35.1 50.1  
Snow Depth 0.00 in    
Sea Level Pressure  
Sea Level Pressure 30.00 in    
Wind  
Wind Speed 9 mph (SW)    
Max Wind Speed 20 mph    
Max Gust Speed 24 mph    
Visibility 10 miles    
Events Rain    
T = Trace of Precipitation, MM = Missing Value Source: NWS Daily Summary

Daily Weather History Graph

Daily Weather History Graph

Search for Another Location

Airport or City:

Trip Planner

Search our weather history database for the weather conditions in past years. The results will help you decide how hot, cold, wet, or windy it might be!

Date:

Astronomy

Apr. 17, 2012 Rise Set
Actual Time 6:23 AM MDT 8:04 PM MDT
Civil Twilight 5:52 AM MDT 8:35 PM MDT
Nautical Twilight 5:14 AM MDT 9:14 PM MDT
Astronomical Twilight 4:32 AM MDT 9:55 PM MDT
Moon 4:32 AM MDT (4/17) 4:52 PM MDT (4/17)
Length of Visible Light 14h 43m
Length of Day
13h 40m
Waning Crescent, 11% of the Moon is Illuminated
Apr 17
Waning Crescent
Apr 21
New
Apr 29
First Quarter
May 5
Full
May 12
Last Quarter

Hourly Weather History & Observations

Time (MDT) Temp. Windchill Dew Point Humidity Pressure Visibility Wind Dir Wind Speed Gust Speed Precip Events Conditions
12:53 AM 48.0 °F - 28.0 °F 46% 29.92 in 10.0 mi SSW 6.9 mph - N/A   Mostly Cloudy
1:53 AM 48.9 °F - 27.0 °F 43% 29.92 in 10.0 mi SW 9.2 mph - N/A   Overcast
2:53 AM 44.1 °F 41.5 °F 28.9 °F 55% 29.92 in 10.0 mi WSW 4.6 mph - N/A   Partly Cloudy
3:53 AM 44.1 °F 41.5 °F 30.0 °F 58% 29.93 in 10.0 mi NW 4.6 mph - N/A   Partly Cloudy
4:53 AM 43.0 °F 41.3 °F 32.0 °F 65% 29.95 in 10.0 mi West 3.5 mph - N/A   Partly Cloudy
5:53 AM 46.0 °F 44.8 °F 35.1 °F 66% 29.95 in 10.0 mi West 3.5 mph - N/A   Mostly Cloudy
6:53 AM 45.0 °F 41.8 °F 34.0 °F 65% 29.96 in 10.0 mi WNW 5.8 mph - N/A   Mostly Cloudy
7:53 AM 46.9 °F - 33.1 °F 59% 29.99 in 10.0 mi SW 5.8 mph - N/A   Overcast
8:53 AM 46.0 °F 41.0 °F 37.0 °F 71% 30.01 in 10.0 mi WNW 10.4 mph - 0.00 in Rain Light Rain
9:53 AM 43.0 °F 38.2 °F 37.0 °F 80% 30.02 in 10.0 mi SSW 8.1 mph - 0.00 in   Overcast
10:53 AM 48.9 °F - 37.0 °F 64% 30.03 in 10.0 mi WSW 15.0 mph 21.9 mph N/A   Overcast
11:53 AM 48.9 °F - 30.0 °F 48% 30.06 in 10.0 mi WSW 12.7 mph 18.4 mph 0.00 in   Overcast
12:53 PM 48.0 °F - 33.1 °F 56% 30.05 in 10.0 mi SW 11.5 mph - N/A   Mostly Cloudy
1:53 PM 51.1 °F - 35.1 °F 54% 30.01 in 10.0 mi SSW 15.0 mph - N/A   Scattered Clouds
2:53 PM 53.1 °F - 34.0 °F 48% 30.01 in 10.0 mi WSW 8.1 mph - N/A   Mostly Cloudy
3:53 PM 55.0 °F - 32.0 °F 42% 30.01 in 10.0 mi SW 12.7 mph - N/A   Scattered Clouds
4:53 PM 55.0 °F - 34.0 °F 45% 30.01 in 10.0 mi SW 13.8 mph 20.7 mph N/A   Scattered Clouds
5:53 PM 54.0 °F - 33.1 °F 45% 30.01 in 10.0 mi SW 16.1 mph - N/A   Scattered Clouds
6:53 PM 52.0 °F - 34.0 °F 50% 30.01 in 10.0 mi WSW 15.0 mph - N/A   Scattered Clouds
7:53 PM 51.1 °F - 33.1 °F 50% 30.01 in 10.0 mi SW 5.8 mph - N/A   Scattered Clouds
8:53 PM 45.0 °F 41.2 °F 33.1 °F 63% 30.03 in 10.0 mi ENE 6.9 mph - N/A   Partly Cloudy
9:53 PM 46.9 °F - 34.0 °F 61% 30.04 in 10.0 mi SE 10.4 mph - N/A   Clear
10:53 PM 44.1 °F - 33.1 °F 65% 30.03 in 10.0 mi Calm Calm - N/A   Clear
11:53 PM 44.1 °F 40.1 °F 33.1 °F 65% 30.02 in 10.0 mi ESE 6.9 mph - N/A   Clear